Weather in Uryupinsk

Russia / Volgograd Oblast     50°47′40″N   41°59′45″E
temp.,
°C
wind,
m/s
gust,
m/s
humid.,
%
clouds,
%
prec.,
mm/h
press.,
hPa
HPBL,
m
25 february, thu
thu2500:00−16s368595 0.0 1039259
03:00−15ssw488898 0.0 1037320
06:00−13ssw61094100 0.4 1034409
09:00−11ssw61193100 0.8 1031447
12:00−8sw61093100 0.8 1029514
15:00−6sw71293100 2.0 1026535
18:00−4sw81492100 0.3 1022420
21:00−1wsw71393100 0.7 1020412
26 february, fri
fri2600:00+1w61296100 0.1 1018294
03:00+1w41099100 0.1 1018256
06:00+1wnw51198100 0.4 1018310
09:00+1w4999100 0.4 1018239
12:00+2w511100100 0.3 1017284
15:00+2w51199100 0.4 1016286
18:00+3w61498100 0.0 1014415
21:00+2w61497100 0.1 1013387
27 february, sat
sat2700:00+2wsw71494100 0.1 1011392
03:00+2w51195100 0.1 1010383
06:00+1w51192100 0.0 1009403
09:00+1w51194100 0.0 1008466
12:00+1w61199100 0.1 1008636
15:00+1w51194100 0.1 1008551
18:00+1w6119398 0.0 1007536
21:00+1wnw6119799 0.1 1008561
28 february, sun
sun2800:00+1wnw51193100 0.1 1008517
03:000wnw51093100 0.1 1009440
06:00−3n489188 0.1 1010468
09:00−5n578689 0.1 1012539
12:00−5nnw568199 0.0 1014624
15:00−4nnw5781100 0.0 1015674
18:00−5nnw5883100 0.0 1017658
21:00−6n5885100 0.1 1020636
1 march, mon
mon100:00−7n4787100 0.1 1021587
03:00−7nnw369099 0.1 1023517
06:00−7n379199 0.1 1024536
09:00−7n478799 0.1 1026632
12:00−6n4681100 0.1 1027669
15:00−5nnw4680100 0.1 1028725
18:00−6nnw5783100 0.0 1029647
21:00−6nnw3685100 0.1 1030590